Showing default

NIMBUS 4, 4362

Orbit data source: Space-Track

NIMBUS 4, 4362 is a payload satellite owned by GSFC (US) in SSO that was launched on Wed, 08 Apr 1970 UTC via a THORAD SLV-2G AGENA D launch vehicle from the Air Force Western Test Range (AFWTR). Payloads include a variety of satellites, spacecraft, and rockets equipped with specific instruments for various scientific and technological missions. These include communications satellites like Starlink; space stations such as the ISS; scientific satellites like the Hubble; Earth observation satellites from companies like Planet Labs, Umbra, and HawkEye 360; GPS; miniature CubeSats for education and research; and military/defense satellites.

Loading next visibility...
NIMBUS 4 details
Identifier
4362, 1970-025A
Orbit
SSO
Last TLE update23 hours ago
Origin
Flag of USGSFC (US)
ManufacturerGE/MSVD
MissionNon-operational Civil Weather
Bus & MotorNIMBUS, Unknown motor
Mass619 kg wet, 619 kg dry
Launch date (UTC)
1970-04-08 (55 years ago)
Launch vehicle
THORAD SLV-2G AGENA D
Launch site
Air Force Western Test Range (AFWTR)
Object type
Payload
Rocket body
Debris
Shape & HBRCone + 2 Pan, 3.35 m
Radar Cross Section2.947 m², Large (>1 m²)

Expand to show TLE details & history

TLE from 23 hours ago
0 NIMBUS 4
1 04362U 70025A   24360.51891642  .00000005  00000-0  85536-4 0  9996
2 04362  99.9554 276.0330 0006926 227.5933 306.4050 13.44714351684440
Epoch: 2024-12-25T12:27Z
Definitive object data (Epoch: 2024-12-25T12:27:14.378Z)
Latitude5.89773°
Longitude175.74518°
Altitude1,090.899 km
Speed7.309 km/s
True Right ascension06h 28m 15s
True Declination5° 51' 51"
Sunlit
Object was in full shadow at TLE epoch
Visualization TLE readout
Latitude20.05243°
Longitude179.32019°
Altitude1,092.002 km
Speed7.309 km/s
Apparent Right ascension03h 53m 52s
Apparent Declination-13° 06' 52"
Sunlit
Object is in full shadow
Visualization observer readout
Local Sidereal Time10:57:10
Azimuth269.781° W
Elevation-20.446°
Doppler factor1
Orbital elements
Apogee altitude1,094.263 km
Perigee altitude1,083.919 km
Semi-major axis7,467.228 km
Eccentricity0.0006926
Inclination99.9554°
RAAN276.033°
Arg. of periapsis227.5933°
True anomaly306.34109°
Mean anomaly306.405°
Eccentric anomaly306.37305°
Mean motion3.3636 °/min
BSTAR0.000085536
Orbital period107.03 mins
Loading maneuver chart data...

NIMBUS 4 Visibility forecast

Observer location: undefined°, undefined

Span
Click to sort rows by Start time (UTC) header in descending order
Start Az.
Max El. time (UTC)
Max El. Az.
Max El.
End time (UTC)
End Az.
11 mins2024-12-26 18:04:48.241Z144.072° SSE2024-12-26 18:09:48.241Z50.441° ENE41.067°2024-12-26 18:15:48.241Z351.922° N
8 mins2024-12-26 19:51:48.241Z228.829° WSW2024-12-26 19:54:48.241Z260.882° W20.451°2024-12-26 19:59:48.241Z312.653° NW
11 mins2024-12-27 07:03:48.241Z29.432° NE2024-12-27 07:08:48.241Z103.464° ESE38.822°2024-12-27 07:14:48.241Z176.628° S
9 mins2024-12-27 08:49:48.241Z344.841° N2024-12-27 08:53:48.241Z299.202° NW24.69°2024-12-27 08:58:48.241Z246.111° WSW
|